Temp
-11 -11 -10 -10 -10 -9 -10 -8 -7 -7 -7 -7 -7 -7 -5 -6 -6 -6 -5 -5 -6 -6 -5 -5 -6 -6 -5 -6 -6 -6 -6 -6
-12 -12 -10 -11 -10 -9 -10 -7 -8 -8 -7 -7 -8 -8 -7 -5 -5 -6 -6 -5 -5 -6 -6 -5 -4 -6 -7 -6 -6 -6 -6 -6
-12 -12 -11 -11 -9 -10 -10 -8 -9 -8 -8 -8 -8 -8 -9 -7 -7 -6 -6 -6 -5 -6 -6 -6 -6 -6 -6 -6 -7 -6 -6 -6
-12 -12 -12 -11 -10 -10 -10 -9 -10 -9 -9 -9 -8 -8 -7 -7 -7 -6 -7 -6 -5 -6 -6 -6 -6 -6 -6 -6 -7 -6 -6 -6
-12 -12 -12 -12 -11 -10 -10 -9 -9 -10 -9 -9 -9 -8 -7 -7 -7 -6 -6 -6 -6 -6 -6 -6 -7 -7 -6 -6 -6 -6 -6 -6
-12 -11 -11 -12 -12 -11 -10 -9 -9 -10 -10 -9 -10 -9 -8 -7 -7 -7 -6 -6 -6 -7 -7 -7 -6 -6 -7 -7 -7 -6 -5 -5
-12 -11 -11 -11 -12 -12 -11 -9 -10 -10 -10 -9 -8 -8 -8 -8 -7 -7 -7 -7 -7 -7 -7 -5 -5 -7 -7 -7 -7 -6 -6 -6
-12 -11 -11 -11 -12 -12 -12 -10 -11 -10 -10 -9 -9 -8 -8 -8 -7 -7 -7 -7 -7 -7 -7 -4 -7 -7 -8 -8 -8 -8 -7 -7
-13 -12 -11 -12 -11 -12 -12 -11 -12 -12 -11 -10 -9 -7 -8 -9 -9 -9 -9 -7 -8 -8 -8 -8 -8 -8 -8 -8 -9 -9 -8 -7
-12 -12 -12 -11 -11 -11 -11 -11 -11 -10 -9 -9 -9 -8 -7 -9 -9 -9 -8 -8 -8 -9 -9 -8 -8 -9 -9 -8 -9 -9 -8 -8
-13 -13 -12 -12 -11 -11 -11 -11 -10 -10 -9 -9 -9 -8 -7 -9 -9 -10 -9 -9 -9 -9 -9 -9 -8 -9 -9 -9 -9 -9 -9 -8
-14 -14 -13 -12 -11 -12 -11 -11 -9 -10 -10 -9 -9 -8 -8 -8 -8 -9 -10 -10 -11 -10 -10 -10 -9 -9 -9 -9 -9 -9 -9 -9
-14 -15 -13 -13 -12 -11 -12 -11 -10 -10 -10 -10 -8 -9 -11 -10 -10 -10 -10 -10 -10 -10 -10 -10 -10 -10 -10 -10 -9 -10 -10 -9
-14 -14 -14 -13 -13 -12 -12 -12 -11 -10 -10 -11 -10 -11 -12 -11 -12 -11 -11 -9 -10 -10 -10 -10 -10 -10 -10 -10 -10 -10 -10 -10
-13 -13 -14 -14 -14 -14 -13 -12 -12 -12 -12 -11 -13 -13 -13 -12 -11 -10 -11 -11 -10 -11 -10 -10 -10 -10 -10 -10 -10 -10 -10 -10
-14 -13 -13 -14 -14 -14 -14 -13 -13 -12 -12 -13 -13 -13 -12 -12 -12 -12 -12 -12 -11 -11 -11 -10 -10 -10 -10 -10 -10 -10 -10 -10
-14 -13 -14 -14 -14 -13 -13 -13 -13 -13 -12 -12 -12 -13 -13 -12 -12 -13 -12 -12 -12 -12 -12 -12 -11 -11 -12 -12 -12 -11 -11 -11
-14 -14 -14 -14 -14 -14 -13 -13 -13 -13 -13 -13 -12 -12 -12 -12 -12 -12 -12 -12 -12 -12 -12 -12 -12 -12 -12 -12 -12 -12 -12 -12
-13 -14 -14 -14 -14 -14 -14 -14 -13 -13 -13 -13 -13 -12 -12 -12 -13 -13 -13 -13 -13 -13 -13 -13 -13 -13 -13 -13 -13 -13 -13 -13
Height
5840 5844 5850 5851 5854 5860 5858 5861 5865 5866 5868 5867 5870 5876 5875 5877 5878 5885 5893 5899 5905 5908 5913 5915 5920 5921 5925 5928 5930 5932 5935 5937
5835 5841 5844 5848 5853 5857 5856 5864 5865 5865 5862 5867 5869 5873 5874 5878 5879 5885 5889 5895 5901 5906 5907 5914 5906 5921 5924 5927 5930 5927 5930 5933
5831 5833 5840 5844 5850 5853 5855 5861 5861 5862 5864 5870 5870 5868 5870 5875 5879 5884 5888 5891 5897 5903 5904 5904 5904 5917 5921 5924 5928 5926 5927 5931
5828 5835 5836 5841 5846 5849 5852 5858 5858 5861 5863 5865 5871 5874 5876 5874 5878 5884 5888 5888 5894 5897 5901 5905 5909 5915 5917 5920 5922 5926 5926 5928
5825 5829 5832 5836 5841 5845 5850 5854 5856 5860 5860 5862 5869 5867 5874 5880 5881 5882 5886 5884 5892 5894 5898 5902 5906 5911 5911 5916 5917 5919 5922 5922
5820 5824 5826 5828 5836 5841 5845 5850 5854 5857 5857 5860 5864 5869 5873 5872 5874 5877 5880 5883 5890 5893 5895 5900 5900 5903 5907 5910 5915 5915 5919 5920
5812 5819 5818 5826 5830 5839 5840 5845 5850 5851 5853 5857 5861 5863 5869 5869 5870 5872 5876 5881 5884 5889 5896 5899 5883 5886 5900 5906 5909 5910 5913 5916
5810 5815 5819 5825 5829 5827 5833 5842 5844 5844 5849 5853 5857 5864 5863 5864 5866 5869 5871 5879 5880 5882 5886 5881 5885 5892 5895 5901 5901 5906 5909 5910
5803 5812 5819 5818 5823 5823 5827 5831 5837 5839 5845 5848 5852 5858 5859 5861 5863 5867 5867 5869 5875 5877 5882 5884 5886 5889 5895 5897 5900 5904 5906 5907
5799 5806 5812 5812 5815 5816 5822 5827 5832 5832 5840 5844 5848 5853 5855 5857 5860 5865 5868 5870 5872 5876 5877 5880 5885 5887 5890 5893 5896 5897 5899 5902
5789 5797 5805 5809 5812 5814 5818 5823 5827 5830 5833 5835 5842 5846 5849 5853 5857 5859 5861 5864 5867 5871 5875 5877 5880 5883 5885 5887 5889 5891 5894 5896
5785 5788 5796 5801 5806 5807 5813 5818 5820 5822 5826 5828 5831 5836 5844 5847 5850 5852 5854 5856 5861 5865 5868 5871 5874 5877 5880 5882 5883 5885 5888 5888
5780 5784 5792 5795 5802 5806 5809 5817 5814 5817 5820 5823 5820 5818 5830 5837 5838 5841 5846 5851 5854 5858 5861 5864 5867 5870 5872 5873 5875 5877 5879 5880
5779 5783 5789 5792 5796 5800 5803 5809 5809 5812 5817 5817 5816 5811 5816 5821 5826 5832 5838 5843 5846 5849 5851 5854 5856 5859 5860 5862 5864 5866 5867 5869
5780 5782 5784 5786 5788 5794 5800 5802 5806 5804 5802 5783 5802 5804 5812 5819 5821 5826 5829 5832 5834 5837 5840 5843 5847 5849 5851 5852 5854 5855 5856 5857
5776 5779 5782 5786 5788 5791 5796 5799 5800 5801 5799 5799 5800 5802 5808 5811 5812 5815 5818 5821 5824 5827 5830 5832 5835 5837 5839 5840 5842 5843 5844 5846
5772 5777 5781 5784 5784 5788 5791 5794 5795 5796 5796 5795 5797 5795 5796 5802 5806 5805 5808 5811 5814 5816 5818 5820 5822 5824 5826 5828 5829 5831 5832 5834
5773 5774 5776 5778 5779 5782 5784 5788 5791 5792 5792 5791 5791 5796 5797 5795 5795 5798 5799 5801 5804 5806 5808 5809 5809 5811 5813 5814 5815 5816 5818 5820
5770 5772 5772 5774 5777 5777 5778 5781 5783 5786 5786 5786 5786 5788 5789 5790 5789 5789 5791 5792 5794 5796 5798 5798 5798 5799 5801 5802 5802 5803 5805 5806
Wind_Speed
16 21 26 23 24 18 25 6 8 5 9 3 7 4 5 8 16 35 34 33 31 27 25 25 18 19 17 16 17 15 13 13
15 13 19 24 16 21 22 18 20 17 4 7 14 9 9 9 5 25 36 36 32 27 28 25 37 19 17 17 17 15 14 15
24 24 20 31 25 21 22 23 20 17 18 11 6 10 15 13 13 4 26 29 28 25 24 22 28 22 20 14 15 13 14 13
23 18 21 20 31 21 18 19 24 23 23 13 5 9 6 15 15 15 14 23 23 25 23 32 30 28 23 16 13 18 15 14
28 24 11 9 26 35 28 25 25 23 26 19 12 11 7 8 12 16 15 19 16 16 19 24 15 17 16 17 15 14 16 14
29 21 21 21 17 27 30 33 29 25 23 21 19 14 9 11 14 27 28 26 18 11 12 20 15 16 9 12 14 14 16 14
26 17 17 25 18 24 25 26 19 21 22 26 27 24 17 20 15 13 22 23 20 16 14 16 21 7 13 12 12 13 15 13
47 33 21 21 21 26 25 25 18 22 22 24 24 16 23 24 29 26 21 26 24 22 17 16 16 14 15 16 12 10 11 11
35 45 28 33 28 25 21 28 18 27 24 26 27 26 29 32 31 26 25 25 26 25 23 21 17 20 17 16 14 14 14 12
31 39 32 33 29 25 27 31 30 31 32 33 29 26 34 26 17 24 22 20 23 25 24 24 24 25 23 24 21 21 19 16
22 40 41 37 34 30 35 31 34 40 45 39 35 28 30 38 22 24 23 25 26 29 27 23 24 27 24 24 23 23 21 20
25 37 44 37 37 30 36 33 26 29 22 29 39 46 42 18 31 36 30 27 28 28 30 32 32 34 32 30 30 28 26 25
25 34 38 31 32 34 35 40 35 29 27 23 26 28 40 40 30 27 26 26 26 28 31 33 36 37 38 38 38 35 34 32
18 28 21 28 22 38 34 37 40 39 37 44 50 25 18 19 27 29 31 37 35 32 33 34 36 37 40 41 40 41 41 40
10 11 10 2 17 18 28 26 34 39 50 19 31 19 21 25 33 41 36 38 39 37 36 37 38 39 40 42 41 41 41 41
16 18 15 11 14 10 7 10 24 34 40 44 44 36 29 28 31 37 34 36 40 41 41 42 43 43 44 44 43 44 44 44
10 14 12 11 12 13 14 15 15 20 26 32 31 27 24 24 24 27 31 35 39 41 41 42 43 45 46 46 46 47 47 47
8 9 7 9 10 11 14 14 17 23 24 27 31 32 30 30 28 27 29 31 33 35 37 39 41 44 46 48 49 49 48 48
14 12 12 11 7 10 13 14 16 19 23 26 26 26 24 23 23 25 25 27 29 31 33 36 38 39 40 41 43 45 47 50
Wind_Direction
239 238 225 234 243 271 271 289 221 238 238 12 105 182 48 250 192 196 203 189 199 206 206 198 185 203 205 215 201 200 216 225
205 255 222 199 210 220 236 233 247 282 159 202 145 96 94 226 274 187 199 196 200 214 212 205 192 217 199 197 216 194 214 219
185 217 232 203 206 206 214 221 256 264 293 275 177 151 131 123 124 131 207 204 211 199 217 211 192 206 184 185 216 200 199 215
181 217 248 217 208 209 196 220 240 257 287 296 286 310 169 162 154 154 161 197 203 212 214 210 213 218 208 215 228 215 209 240
181 188 195 230 212 210 219 219 222 238 264 283 295 309 300 306 212 200 205 208 226 225 220 217 207 204 196 224 226 228 233 244
186 195 201 189 198 204 210 222 218 218 250 274 293 284 260 207 207 192 204 215 215 217 249 224 209 204 246 217 227 240 254 262
205 195 203 199 180 183 204 213 204 219 232 242 258 264 253 234 235 243 211 216 222 221 224 222 234 191 217 234 247 265 270 282
211 211 212 195 177 193 201 208 219 225 223 231 238 242 259 254 223 221 222 221 231 226 222 214 195 220 252 251 244 241 253 266
214 217 220 202 188 192 185 177 207 239 241 234 235 239 247 264 235 212 223 220 221 236 239 245 247 239 232 241 241 240 237 237
217 213 213 210 202 205 189 187 211 219 215 229 236 240 247 263 236 202 215 237 241 245 245 236 245 250 243 238 238 242 246 248
212 211 212 218 211 212 196 201 206 222 226 216 219 230 243 233 202 203 217 221 234 240 247 242 243 237 234 234 237 237 244 248
210 202 205 212 208 212 196 202 206 218 218 223 230 229 234 207 226 232 222 222 229 237 243 248 248 250 250 246 248 247 247 249
213 210 212 226 222 220 217 215 200 202 201 222 241 227 229 223 208 204 211 225 238 243 243 244 246 247 250 252 256 257 257 257
225 233 252 224 242 220 224 221 222 221 237 239 237 251 295 250 233 238 248 254 252 246 245 247 247 248 251 254 257 261 262 263
222 219 244 185 195 219 235 237 238 249 247 296 276 287 268 256 245 246 248 246 250 253 250 246 244 245 248 251 254 256 259 262
231 236 251 267 250 274 265 248 239 244 254 260 267 271 269 264 262 251 248 247 248 250 250 251 253 253 251 253 254 255 258 258
249 236 246 236 240 252 251 249 246 251 260 264 265 273 273 265 255 254 254 252 252 249 250 250 249 250 251 253 256 257 258 258
281 276 268 254 259 254 256 256 246 246 254 259 262 261 260 263 261 253 250 249 250 253 253 253 253 254 254 255 256 258 259 259
281 287 288 268 255 253 252 251 245 237 239 248 253 258 261 256 258 262 259 256 255 254 254 255 256 256 256 257 258 259 259 259